Auburn, IN

4:33 PM EST on December 09, 2019 (GMT -0500)
Auburn

Weather History for KGWB - November, 2019

Change the Weather History Date:

Saturday, November 16, 2019

  Actual Average (KFWA) Record (KFWA)
Temperature  
Mean Temperature 30 °F -  
Max Temperature 37 °F 47 °F 70 °F (1930)
Min Temperature 24 °F 30 °F 11 °F (1933)
Degree Days  
Heating Degree Days 34    
Moisture  
Dew Point 27 °F    
Average Humidity 87    
Maximum Humidity 100    
Minimum Humidity 70    
Precipitation  
Precipitation 0.00 in - - ()
Sea Level Pressure  
Sea Level Pressure 30.37 in    
Wind  
Wind Speed 5 mph ()    
Max Wind Speed 13 mph    
Max Gust Speed 16 mph    
Visibility 8.3 miles    
Events      
Averages and records for this station are not official NWS values.
T = Trace of Precipitation, MM = Missing Value Source: Averaged Metar Reports

Daily Weather History Graph

Daily Weather History Graph

Search for Another Location

Airport or City:

Astronomy

Nov. 16, 2019 Rise Set
Actual Time 7:29 AM EST 5:20 PM EST
Civil Twilight 6:59 AM EST 5:49 PM EST
Nautical Twilight 6:26 AM EST 6:23 PM EST
Astronomical Twilight 5:53 AM EST 6:55 PM EST
Moon 8:51 PM EST (11/16) 11:23 AM EST (11/16)
Length of Visible Light 10h 50m
Length of Day
9h 50m
Waning Gibbous, 82% of the Moon is Illuminated
Nov 16
Waning Gibbous
Nov 19
Last Quarter
Nov 26
New
Dec 4
First Quarter
Dec 12
Full

Hourly Weather History & Observations

Time (EST) Temp. Windchill Dew Point Humidity Pressure Visibility Wind Dir Wind Speed Gust Speed Precip Events Conditions
12:15 AM 28.4 °F - 28.4 °F 100% 30.40 in 4.0 mi Calm Calm - N/A   Clear
12:35 AM 28.4 °F - 28.4 °F 100% 30.40 in 3.0 mi Calm Calm - N/A   Clear
12:55 AM 28.4 °F - 28.4 °F 100% 30.40 in 4.0 mi Calm Calm - N/A   Clear
1:15 AM 28.4 °F - 26.6 °F 93% 30.40 in 3.0 mi Calm Calm - N/A   Clear
1:35 AM 28.4 °F - 26.6 °F 93% 30.40 in 2.5 mi Calm Calm - N/A   Clear
1:55 AM 26.6 °F - 26.6 °F 100% 30.40 in 2.5 mi Calm Calm - N/A   Clear
2:15 AM 26.6 °F - 26.6 °F 100% 30.41 in 2.0 mi Calm Calm - N/A   Clear
2:35 AM 26.6 °F - 26.6 °F 100% 30.41 in 3.0 mi Calm Calm - N/A   Clear
2:55 AM 26.6 °F - 24.8 °F 93% 30.40 in 2.5 mi Calm Calm - N/A   Clear
3:15 AM 24.8 °F 20.5 °F 23.0 °F 93% 30.40 in 2.5 mi NE 3.5 mph - N/A   Clear
3:35 AM 26.6 °F - 24.8 °F 93% 30.40 in 2.5 mi Calm Calm - N/A   Clear
3:55 AM 26.6 °F 21.2 °F 26.6 °F 100% 30.40 in 3.0 mi NE 4.6 mph - N/A   Clear
4:15 AM 26.6 °F 21.2 °F 26.6 °F 100% 30.40 in 4.0 mi NE 4.6 mph - N/A   Clear
4:35 AM 26.6 °F 20.0 °F 26.6 °F 100% 30.40 in 5.0 mi NE 5.8 mph - N/A   Clear
4:55 AM 26.6 °F 20.0 °F 26.6 °F 100% 30.40 in 5.0 mi NE 5.8 mph - N/A   Clear
5:15 AM 26.6 °F 20.0 °F 24.8 °F 93% 30.41 in 5.0 mi NE 5.8 mph - N/A   Clear
5:35 AM 26.6 °F 20.0 °F 24.8 °F 93% 30.41 in 7.0 mi ENE 5.8 mph - N/A   Clear
5:55 AM 26.6 °F 21.2 °F 24.8 °F 93% 30.42 in 7.0 mi NE 4.6 mph - N/A   Clear
6:15 AM 26.6 °F 22.6 °F 24.8 °F 93% 30.42 in 7.0 mi NE 3.5 mph - N/A   Clear
6:35 AM 26.6 °F 21.2 °F 24.8 °F 93% 30.42 in 10.0 mi NE 4.6 mph - N/A   Clear
6:55 AM 26.6 °F 19.1 °F 24.8 °F 93% 30.43 in 10.0 mi ENE 6.9 mph - N/A   Clear
7:15 AM 26.6 °F 21.2 °F 26.6 °F 100% 30.43 in 10.0 mi NE 4.6 mph - N/A   Clear
7:35 AM 28.4 °F 21.2 °F 24.8 °F 86% 30.44 in 10.0 mi NE 6.9 mph - N/A   Clear
7:55 AM 28.4 °F 22.2 °F 24.8 °F 86% 30.44 in 10.0 mi NE 5.8 mph - N/A   Clear
8:15 AM 28.4 °F 21.2 °F 26.6 °F 93% 30.44 in 10.0 mi NE 6.9 mph - N/A   Clear
8:35 AM 28.4 °F 19.7 °F 24.8 °F 86% 30.44 in 10.0 mi ENE 9.2 mph - N/A   Clear
9:15 AM 30.2 °F 21.3 °F 26.6 °F 86% 30.45 in 10.0 mi ENE 10.4 mph - N/A   Clear
9:35 AM 30.2 °F 20.8 °F 26.6 °F 86% 30.45 in 10.0 mi ENE 11.5 mph - N/A   Clear
9:55 AM 32.0 °F 24.2 °F 26.6 °F 80% 30.45 in 10.0 mi ENE 9.2 mph - N/A   Clear
10:15 AM 32.0 °F 24.2 °F 26.6 °F 80% 30.45 in 10.0 mi ENE 9.2 mph - N/A   Clear
10:35 AM 32.0 °F 23.6 °F 26.6 °F 80% 30.45 in 10.0 mi ENE 10.4 mph - N/A   Clear
10:55 AM 33.8 °F 27.0 °F 26.6 °F 75% 30.45 in 10.0 mi East 8.1 mph - N/A   Clear
11:15 AM 33.8 °F 25.3 °F 26.6 °F 75% 30.45 in 10.0 mi ENE 11.5 mph - N/A   Clear
11:35 AM 35.6 °F 28.6 °F 26.6 °F 70% 30.44 in 10.0 mi ENE 9.2 mph - N/A   Clear
11:55 AM 35.6 °F 28.6 °F 26.6 °F 70% 30.42 in 10.0 mi NE 9.2 mph - N/A   Clear
12:15 PM 35.6 °F 29.9 °F 26.6 °F 70% 30.41 in 10.0 mi NE 6.9 mph - N/A   Clear
12:35 PM 35.6 °F 28.0 °F 28.4 °F 75% 30.40 in 10.0 mi ENE 10.4 mph - N/A   Clear
12:55 PM 35.6 °F 28.6 °F 26.6 °F 70% 30.39 in 10.0 mi ENE 9.2 mph - N/A   Clear
1:15 PM 35.6 °F 28.0 °F 26.6 °F 70% 30.37 in 10.0 mi East 10.4 mph - N/A   Clear
1:35 PM 37.4 °F 30.3 °F 28.4 °F 70% 30.37 in 10.0 mi NE 10.4 mph - N/A   Clear
1:55 PM 37.4 °F 30.3 °F 28.4 °F 70% 30.36 in 10.0 mi ENE 10.4 mph - N/A   Clear
2:15 PM 37.4 °F 30.3 °F 28.4 °F 70% 30.35 in 10.0 mi NE 10.4 mph - N/A   Clear
2:35 PM 35.6 °F 28.6 °F 26.6 °F 70% 30.35 in 10.0 mi ENE 9.2 mph - N/A   Clear
2:55 PM 35.6 °F 27.1 °F 26.6 °F 70% 30.33 in 10.0 mi NE 12.7 mph - N/A   Clear
3:15 PM 35.6 °F 27.5 °F 26.6 °F 70% 30.33 in 10.0 mi East 11.5 mph 16.1 mph N/A   Clear
3:35 PM 35.6 °F 27.5 °F 26.6 °F 70% 30.33 in 10.0 mi East 11.5 mph - N/A   Clear
3:55 PM 35.6 °F 28.6 °F 26.6 °F 70% 30.32 in 10.0 mi East 9.2 mph - N/A   Clear
4:15 PM 35.6 °F 27.5 °F 28.4 °F 75% 30.32 in 10.0 mi ENE 11.5 mph - N/A   Scattered Clouds
4:35 PM 33.8 °F 26.4 °F 28.4 °F 81% 30.32 in 10.0 mi ENE 9.2 mph - N/A   Scattered Clouds
4:55 PM 33.8 °F 27.7 °F 28.4 °F 81% 30.32 in 10.0 mi ENE 6.9 mph - N/A   Clear
5:15 PM 32.0 °F 25.6 °F 28.4 °F 87% 30.32 in 10.0 mi ENE 6.9 mph - N/A   Clear
5:35 PM 32.0 °F 24.2 °F 28.4 °F 87% 30.32 in 10.0 mi ENE 9.2 mph - N/A   Mostly Cloudy
5:55 PM 32.0 °F 25.6 °F 28.4 °F 87% 30.32 in 10.0 mi East 6.9 mph - N/A   Overcast
6:15 PM 32.0 °F 24.2 °F 28.4 °F 87% 30.32 in 10.0 mi ENE 9.2 mph - N/A   Overcast
6:35 PM 32.0 °F 24.2 °F 28.4 °F 87% 30.32 in 10.0 mi ENE 9.2 mph - N/A   Overcast
6:55 PM 32.0 °F 24.8 °F 28.4 °F 87% 30.31 in 10.0 mi East 8.1 mph - N/A   Overcast
7:15 PM 32.0 °F 25.6 °F 26.6 °F 80% 30.31 in 10.0 mi East 6.9 mph - N/A   Scattered Clouds
7:35 PM 30.2 °F 24.3 °F 26.6 °F 86% 30.31 in 10.0 mi ENE 5.8 mph - N/A   Clear
7:55 PM 30.2 °F 25.4 °F 26.6 °F 86% 30.31 in 10.0 mi ENE 4.6 mph - N/A   Clear
8:35 PM 28.4 °F 22.2 °F 26.6 °F 93% 30.29 in 10.0 mi ENE 5.8 mph - N/A   Clear
8:55 PM 28.4 °F 22.2 °F 26.6 °F 93% 30.28 in 10.0 mi ENE 5.8 mph - N/A   Clear
9:15 PM 28.4 °F 21.2 °F 26.6 °F 93% 30.28 in 10.0 mi ENE 6.9 mph - N/A   Clear
9:35 PM 28.4 °F 22.2 °F 26.6 °F 93% 30.27 in 10.0 mi ENE 5.8 mph - N/A   Clear
9:55 PM 28.4 °F 22.2 °F 26.6 °F 93% 30.27 in 10.0 mi East 5.8 mph - N/A   Clear
10:15 PM 26.6 °F 21.2 °F 26.6 °F 100% 30.26 in 10.0 mi East 4.6 mph - N/A   Clear
10:55 PM 26.6 °F 19.1 °F 26.6 °F 100% 30.24 in 10.0 mi ENE 6.9 mph - N/A   Clear
11:15 PM 26.6 °F 21.2 °F 26.6 °F 100% 30.23 in 10.0 mi East 4.6 mph - N/A   Clear
11:35 PM 26.6 °F 21.2 °F 24.8 °F 93% 30.23 in 10.0 mi East 4.6 mph - N/A   Clear
11:55 PM 26.6 °F 19.1 °F 24.8 °F 93% 30.23 in 10.0 mi ENE 6.9 mph - N/A   Clear